�N����,�����b,�ŏ������i�x�j,���ϕ����i�x�j,�ő啗���i�x�j,�ŏ�����(m/s),���ϕ���(m/s),�ő啗��(m/s),�C��(���j,���x�i���j,�C��(hPa),�~�J��(mm),�~�J����(�b�j,�~�J���x(mm/h),�ő�~�J���x(mm/h),�~�Ђ傤��(hit/���u),�~�Ђ傤����(�b�j,�~�Ђ傤���x(hit/���uh),�ő�~�Ђ傤���x(hit/���uh),�q�[�^���x(���j,�q�[�^�[�d���iV),�d���d���iV),�Q�Ɠd���iV)
2015/06/01,00:00:01,126,135,147,0.7,0.8,0.9,23.7,93.7,1003.2,0.00,0,0.0,////,0.0,0,0.0,////,22.7,0.0,12.3,3.523
2015/06/01,00:10:01,131,134,140,0.6,0.7,0.8,23.7,93.7,1003.1,0.00,0,0.0,////,0.0,0,0.0,////,22.7,0.0,12.3,3.524
2015/06/01,00:20:01,131,133,135,1.0,1.1,1.3,23.7,93.6,1003.2,0.00,0,0.0,////,0.0,0,0.0,////,22.5,0.0,12.3,3.523
2015/06/01,00:30:01,119,122,125,1.4,1.5,1.6,23.7,93.6,1003.0,0.00,0,0.0,////,0.0,0,0.0,////,22.7,0.0,12.2,3.521
2015/06/01,00:40:01,186,188,191,0.2,0.4,0.5,23.7,93.6,1002.9,0.00,0,0.0,////,0.0,0,0.0,////,22.7,0.0,12.3,3.524
2015/06/01,00:50:01,150,155,158,0.7,0.8,0.9,23.6,93.8,1002.9,0.00,0,0.0,////,0.0,0,0.0,////,22.7,0.0,12.3,3.524
2015/06/01,01:00:01,133,137,144,0.2,0.3,0.3,23.6,93.9,1002.8,0.00,0,0.0,////,0.0,0,0.0,////,22.5,0.0,12.3,3.521
2015/06/01,01:10:01,109,126,142,0.1,0.1,0.2,23.6,93.9,1002.8,0.00,0,0.0,////,0.0,0,0.0,////,22.5,0.0,12.3,3.523
2015/06/01,01:20:01,071,072,072,0.3,0.4,0.4,23.6,93.9,1002.9,0.00,0,0.0,////,0.0,0,0.0,////,22.4,0.0,12.3,3.523
2015/06/01,01:30:01,107,110,115,0.6,0.7,0.8,23.6,93.7,1002.8,0.00,0,0.0,////,0.0,0,0.0,////,22.5,0.0,12.3,3.521
2015/06/01,01:40:01,104,107,109,0.3,0.3,0.4,23.7,93.6,1002.7,0.00,0,0.0,////,0.0,0,0.0,////,22.9,0.0,12.3,3.521
2015/06/01,01:50:01,121,124,128,0.9,0.9,1.0,23.7,93.4,1002.6,0.00,0,0.0,////,0.0,0,0.0,////,22.7,0.0,12.3,3.524
2015/06/01,02:00:01,118,120,124,0.9,1.0,1.0,23.6,93.5,1002.4,0.00,0,0.0,////,0.0,0,0.0,////,22.5,0.0,12.2,3.523
2015/06/01,02:10:01,168,170,171,0.9,1.0,1.1,23.6,93.7,1002.5,0.00,0,0.0,////,0.0,0,0.0,////,22.9,0.0,12.3,3.521
2015/06/01,02:20:01,172,175,178,1.0,1.1,1.2,23.7,93.5,1002.4,0.00,0,0.0,////,0.0,0,0.0,////,22.5,0.0,12.3,3.523
2015/06/01,02:30:01,174,175,177,1.2,1.3,1.3,23.7,93.2,1002.4,0.00,0,0.0,////,0.0,0,0.0,////,22.9,0.0,12.3,3.523
2015/06/01,02:40:01,170,172,175,0.3,0.4,0.5,23.8,93.0,1002.4,0.00,0,0.0,////,0.0,0,0.0,////,22.9,0.0,12.3,3.521
2015/06/01,02:50:01,070,073,076,0.6,0.6,0.7,24.0,92.3,1002.3,0.00,0,0.0,////,0.0,0,0.0,////,23.1,0.0,12.3,3.523
2015/06/01,03:00:01,118,131,137,0.8,0.9,1.1,23.9,92.1,1002.3,0.00,0,0.0,////,0.0,0,0.0,////,22.9,0.0,12.3,3.521
2015/06/01,03:10:01,140,146,154,0.7,0.9,1.0,23.7,92.8,1002.2,0.00,0,0.0,////,0.0,0,0.0,////,22.7,0.0,12.3,3.523
2015/06/01,03:20:01,147,149,152,1.0,1.2,1.3,23.7,93.2,1002.1,0.00,0,0.0,////,0.0,0,0.0,////,22.2,0.0,12.3,3.521
2015/06/01,03:30:01,129,129,130,1.5,1.6,1.7,23.8,93.3,1002.0,0.00,0,0.0,////,0.0,0,0.0,////,22.9,0.0,12.3,3.525
2015/06/01,03:40:01,139,151,159,0.6,0.6,0.7,24.0,93.3,1002.0,0.00,0,0.0,////,0.0,0,0.0,////,23.1,0.0,12.3,3.523
2015/06/01,03:50:01,017,024,037,0.4,0.5,0.5,24.2,93.0,1002.0,0.00,0,0.0,////,0.0,0,0.0,////,23.1,0.0,12.3,3.523
2015/06/01,04:00:01,098,101,108,1.0,1.1,1.3,24.1,92.5,1001.9,0.00,0,0.0,////,0.0,0,0.0,////,23.2,0.0,12.3,3.523
2015/06/01,04:10:01,125,131,136,1.5,1.7,1.8,24.0,93.2,1002.0,0.00,0,0.0,////,0.0,0,0.0,////,23.4,0.0,12.3,3.523
2015/06/01,04:20:01,104,121,131,0.8,1.1,1.3,23.9,93.9,1002.0,0.00,0,0.0,////,0.0,0,0.0,////,23.1,0.0,12.3,3.523
2015/06/01,04:30:01,101,105,109,0.9,1.0,1.1,23.9,93.9,1002.1,0.00,0,0.0,////,0.0,0,0.0,////,23.1,0.0,12.3,3.523
2015/06/01,04:40:01,113,120,132,1.1,1.2,1.3,23.9,94.0,1002.0,0.00,0,0.0,////,0.0,0,0.0,////,22.9,0.0,12.3,3.523
2015/06/01,04:50:01,122,126,128,1.8,2.0,2.4,23.8,94.2,1002.1,0.00,0,0.0,////,0.0,0,0.0,////,22.9,0.0,12.3,3.523
2015/06/01,05:00:01,117,120,123,2.5,2.6,2.8,23.9,94.3,1002.4,0.00,0,0.0,////,0.0,0,0.0,////,22.7,0.0,12.2,3.523
2015/06/01,05:10:01,108,108,109,2.2,2.3,2.4,23.9,94.2,1002.5,0.00,0,0.0,////,0.0,0,0.0,////,22.9,0.0,12.3,3.521
2015/06/01,05:20:01,118,128,138,1.2,1.4,1.5,24.0,94.3,1002.6,0.00,0,0.0,////,0.0,0,0.0,////,22.9,0.0,12.3,3.523
2015/06/01,05:30:01,117,119,121,2.1,2.2,2.3,24.0,94.2,1002.7,0.00,0,0.0,////,0.0,0,0.0,////,23.2,0.0,12.3,3.523
2015/06/01,05:40:01,110,111,113,1.9,2.1,2.2,24.0,94.2,1002.6,0.00,0,0.0,////,0.0,0,0.0,////,23.2,0.0,12.3,3.523
2015/06/01,05:50:01,104,107,108,1.3,1.5,1.6,24.1,94.4,1002.7,0.00,0,0.0,////,0.0,0,0.0,////,23.2,0.0,12.3,3.523
2015/06/01,06:00:01,093,097,102,0.9,1.1,1.2,24.1,94.6,1002.8,0.00,0,0.0,////,0.0,0,0.0,////,23.2,0.0,12.3,3.523
2015/06/01,06:10:01,101,113,124,1.6,1.7,1.9,24.2,94.6,1002.9,0.00,0,0.0,////,0.0,0,0.0,////,23.4,0.0,12.3,3.521
2015/06/01,06:20:01,071,166,247,0.1,0.2,0.4,24.3,94.6,1003.0,0.00,0,0.0,////,0.0,0,0.0,////,23.4,0.0,12.3,3.523
2015/06/01,06:30:01,100,109,114,1.0,1.2,1.3,24.4,94.4,1003.2,0.00,0,0.0,////,0.0,0,0.0,////,23.6,0.0,12.3,3.524
2015/06/01,06:40:01,084,086,089,1.0,1.1,1.2,24.5,94.3,1003.2,0.00,0,0.0,////,0.0,0,0.0,////,23.9,0.0,12.3,3.521
2015/06/01,06:50:01,054,058,064,0.7,0.8,0.9,24.6,94.2,1003.2,0.00,0,0.0,////,0.0,0,0.0,////,23.9,0.0,12.3,3.523
2015/06/01,07:00:01,103,107,114,1.2,1.3,1.4,24.8,94.0,1003.2,0.00,0,0.0,////,0.0,0,0.0,////,24.3,0.0,12.3,3.521
2015/06/01,07:10:01,104,111,116,1.0,1.1,1.2,25.0,93.8,1003.2,0.00,0,0.0,////,0.0,0,0.0,////,25.0,0.0,12.3,3.523
2015/06/01,07:20:01,100,108,113,1.8,2.4,2.8,25.1,93.1,1003.1,0.00,0,0.0,////,0.0,0,0.0,////,25.1,0.0,12.3,3.523
2015/06/01,07:30:01,108,110,112,2.4,2.6,2.8,25.3,92.3,1003.2,0.00,0,0.0,////,0.0,0,0.0,////,25.6,0.0,12.3,3.521
2015/06/01,07:40:01,111,113,115,2.1,2.2,2.3,25.5,91.4,1003.3,0.00,0,0.0,////,0.0,0,0.0,////,26.0,0.0,12.3,3.524
2015/06/01,07:50:01,107,111,115,1.9,2.0,2.1,25.5,91.3,1003.4,0.00,0,0.0,////,0.0,0,0.0,////,25.8,0.0,12.3,3.521
2015/06/01,08:00:01,087,100,109,1.1,1.2,1.4,25.5,91.6,1003.5,0.00,0,0.0,////,0.0,0,0.0,////,25.6,0.0,12.3,3.523
2015/06/01,08:10:01,109,117,125,1.5,1.7,1.9,25.7,91.7,1003.5,0.00,0,0.0,////,0.0,0,0.0,////,26.0,0.0,12.3,3.523
2015/06/01,08:20:01,081,089,097,1.4,1.5,1.6,26.3,89.9,1003.5,0.00,0,0.0,////,0.0,0,0.0,////,27.5,0.0,12.3,3.521
2015/06/01,08:30:01,101,121,143,1.1,1.3,1.6,26.9,87.2,1003.6,0.00,0,0.0,////,0.0,0,0.0,////,29.1,0.0,12.3,3.521
2015/06/01,08:40:01,091,107,118,1.9,2.0,2.2,26.8,88.7,1003.6,0.00,0,0.0,////,0.0,0,0.0,////,28.9,0.0,12.3,3.521
2015/06/01,08:50:01,118,158,207,0.4,0.8,1.1,26.8,88.0,1003.8,0.00,0,0.0,////,0.0,0,0.0,////,28.6,0.0,12.3,3.523
2015/06/01,09:00:01,103,118,135,1.6,1.8,2.1,27.2,89.0,1003.8,0.00,0,0.0,////,0.0,0,0.0,////,29.4,0.0,12.3,3.521
2015/06/01,09:10:01,119,139,160,0.7,1.0,1.4,27.6,84.8,1004.0,0.00,0,0.0,////,0.0,0,0.0,////,31.5,0.0,12.3,3.521
2015/06/01,09:20:01,094,101,113,2.0,2.4,3.0,27.5,84.5,1004.0,0.00,0,0.0,////,0.0,0,0.0,////,30.5,0.0,12.3,3.521
2015/06/01,09:30:01,108,112,115,2.3,2.4,2.5,27.0,86.8,1004.0,0.00,0,0.0,////,0.0,0,0.0,////,28.7,0.0,12.3,3.521
2015/06/01,09:40:01,097,104,107,2.6,3.2,3.8,26.5,88.5,1004.0,0.00,0,0.0,////,0.0,0,0.0,////,27.9,0.0,12.2,3.523
2015/06/01,09:50:01,105,108,110,1.1,1.4,1.7,26.5,90.2,1004.0,0.00,0,0.0,////,0.0,0,0.0,////,27.5,0.0,12.3,3.523
2015/06/01,10:00:01,125,129,132,1.7,1.9,2.0,27.0,88.6,1004.1,0.00,0,0.0,////,0.0,0,0.0,////,28.9,0.0,12.3,3.521
2015/06/01,10:10:01,080,090,105,1.0,1.2,1.3,27.0,87.1,1003.9,0.00,0,0.0,////,0.0,0,0.0,////,29.3,0.0,12.3,3.521
2015/06/01,10:20:01,106,110,114,2.2,3.2,3.9,26.9,87.8,1003.8,0.00,0,0.0,////,0.0,0,0.0,////,29.1,0.0,12.3,3.521
2015/06/01,10:30:01,088,102,111,1.4,1.5,1.7,27.2,87.2,1003.6,0.00,0,0.0,////,0.0,0,0.0,////,29.8,0.0,12.3,3.520
2015/06/01,10:40:01,307,330,007,0.2,0.3,0.4,27.6,87.3,1003.5,0.00,0,0.0,////,0.0,0,0.0,////,30.8,0.0,12.3,3.521
2015/06/01,10:50:01,323,329,337,0.9,1.0,1.4,28.4,81.2,1003.6,0.00,0,0.0,////,0.0,0,0.0,////,33.6,0.0,12.3,3.521
2015/06/01,11:00:01,274,283,288,1.1,1.4,1.7,28.9,75.9,1003.5,0.00,0,0.0,////,0.0,0,0.0,////,36.5,0.0,12.3,3.520
2015/06/01,11:10:01,000,005,008,2.1,2.3,2.5,29.0,80.1,1003.5,0.00,0,0.0,////,0.0,0,0.0,////,37.0,0.0,12.3,3.520
2015/06/01,11:20:01,001,008,015,2.3,2.8,3.2,28.1,83.7,1003.5,0.00,0,0.0,////,0.0,0,0.0,////,34.4,0.0,12.3,3.521
2015/06/01,11:30:01,035,036,036,1.9,2.2,2.4,28.1,85.6,1003.4,0.00,0,0.0,////,0.0,0,0.0,////,32.0,0.0,12.3,3.521
2015/06/01,11:40:01,090,094,097,3.4,3.7,4.1,28.5,81.1,1003.3,0.00,0,0.0,////,0.0,0,0.0,////,33.4,0.0,12.3,3.523
2015/06/01,11:50:01,089,108,137,0.8,1.0,1.1,28.1,84.7,1003.3,0.00,0,0.0,////,0.0,0,0.0,////,32.7,0.0,12.3,3.521
2015/06/01,12:00:01,083,085,088,2.1,2.4,2.8,28.1,83.1,1003.3,0.00,0,0.0,////,0.0,0,0.0,////,32.7,0.0,12.3,3.521
2015/06/01,12:10:01,090,094,101,2.0,2.4,2.8,28.2,81.2,1003.2,0.00,0,0.0,////,0.0,0,0.0,////,32.7,0.0,12.3,3.521
2015/06/01,12:20:01,106,109,113,2.8,3.0,3.2,28.8,80.8,1003.3,0.00,0,0.0,////,0.0,0,0.0,////,32.9,0.0,12.3,3.521
2015/06/01,12:30:01,090,097,102,1.5,1.9,2.1,28.3,82.2,1003.3,0.00,0,0.0,////,0.0,0,0.0,////,31.8,0.0,12.3,3.520
2015/06/01,12:40:01,090,102,111,2.7,3.0,3.1,28.9,81.8,1003.2,0.00,0,0.0,////,0.0,0,0.0,////,32.5,0.0,12.3,3.521
2015/06/01,12:50:01,117,119,121,2.9,3.1,3.2,27.6,83.6,1003.1,0.00,0,0.0,////,0.0,0,0.0,////,31.3,0.0,12.3,3.521
2015/06/01,13:00:01,036,063,087,1.3,1.7,2.0,28.3,82.9,1003.0,0.00,0,0.0,////,0.0,0,0.0,////,31.8,0.0,12.3,3.521
2015/06/01,13:10:01,078,086,094,2.0,2.2,2.4,29.0,80.8,1003.0,0.00,0,0.0,////,0.0,0,0.0,////,33.1,0.0,12.3,3.521
2015/06/01,13:20:01,039,043,046,1.0,1.1,1.2,29.0,79.2,1003.1,0.00,0,0.0,////,0.0,0,0.0,////,33.1,0.0,12.3,3.520
2015/06/01,13:30:01,358,001,005,1.1,1.4,1.5,29.4,79.6,1003.3,0.00,0,0.0,////,0.0,0,0.0,////,33.4,0.0,12.3,3.521
2015/06/01,13:40:01,263,264,265,0.7,0.8,0.9,29.6,74.5,1003.4,0.00,0,0.0,////,0.0,0,0.0,////,32.9,0.0,12.3,3.521
2015/06/01,13:50:01,337,346,353,1.2,1.4,1.7,29.6,76.5,1003.3,0.00,0,0.0,////,0.0,0,0.0,////,33.1,0.0,12.3,3.521
2015/06/01,14:00:01,271,291,304,0.9,1.1,1.2,30.1,73.4,1003.2,0.00,0,0.0,////,0.0,0,0.0,////,36.2,0.0,12.3,3.520
2015/06/01,14:10:01,317,323,327,0.3,0.5,0.7,30.3,74.2,1003.3,0.00,0,0.0,////,0.0,0,0.0,////,35.3,0.0,12.3,3.521
2015/06/01,14:20:01,257,261,265,1.0,1.1,1.2,30.0,73.5,1003.2,0.00,40,0.1,////,0.0,0,0.0,////,33.7,0.0,12.3,3.520
2015/06/01,14:30:01,304,311,318,0.2,0.5,0.7,30.1,74.5,1003.2,0.18,420,0.0,////,0.0,0,0.0,////,32.4,0.0,12.3,3.521
2015/06/01,14:40:01,268,292,309,0.1,0.2,0.4,29.8,75.9,1003.2,0.00,0,0.0,////,0.0,0,0.0,////,31.7,0.0,12.3,3.521
2015/06/01,14:50:01,287,296,310,1.1,1.2,1.3,29.8,74.3,1003.1,0.00,0,0.0,////,0.0,0,0.0,////,32.2,0.0,12.3,3.523
2015/06/01,15:00:01,301,306,311,0.7,0.8,1.0,29.5,75.4,1003.0,0.00,0,0.0,////,0.0,0,0.0,////,32.5,0.0,12.3,3.521
2015/06/01,15:10:01,042,044,046,0.5,0.5,0.6,28.1,81.4,1003.0,0.00,0,0.0,////,0.0,0,0.0,////,30.0,0.0,12.3,3.520
2015/06/01,15:20:01,240,245,254,1.2,1.3,1.4,28.0,86.9,1003.2,2.39,540,23.5,////,0.0,0,0.0,////,27.5,0.0,12.3,3.519
2015/06/01,15:30:01,199,210,217,1.8,1.8,1.9,26.9,90.0,1003.3,1.87,590,1.9,////,0.0,0,0.0,////,26.2,0.0,12.3,3.523
2015/06/01,15:40:01,220,229,234,2.1,2.3,2.4,26.3,92.8,1003.3,3.06,510,42.7,////,0.0,0,0.0,////,25.3,0.0,12.3,3.523
2015/06/01,15:50:01,276,281,290,0.5,0.6,0.6,26.2,94.3,1003.2,4.68,590,20.1,////,0.0,0,0.0,////,25.5,0.0,12.3,3.519
2015/06/01,16:00:01,282,292,307,1.3,1.4,1.5,25.9,94.6,1003.4,3.26,590,61.2,////,0.0,0,0.0,////,24.6,0.0,12.3,3.521
2015/06/01,16:10:01,023,025,028,1.3,1.6,1.7,25.7,95.0,1003.3,7.23,590,2.6,////,0.0,0,0.0,////,24.8,0.0,12.4,3.521
2015/06/01,16:20:01,032,040,050,1.3,1.4,1.6,25.4,95.4,1003.2,2.83,510,0.0,////,0.0,0,0.0,////,24.8,0.0,12.3,3.523
2015/06/01,16:30:01,114,115,116,1.3,1.5,1.6,25.6,95.9,1003.1,0.16,80,8.2,////,0.0,0,0.0,////,24.8,0.0,12.2,3.523
2015/06/01,16:40:01,117,124,127,1.2,1.3,1.4,25.7,95.7,1003.1,0.14,380,0.0,////,0.0,0,0.0,////,25.1,0.0,12.3,3.521
2015/06/01,16:50:01,205,215,226,0.4,0.7,0.9,26.0,95.8,1002.9,0.00,0,0.0,////,0.0,0,0.0,////,25.6,0.0,12.3,3.524
2015/06/01,17:00:01,175,183,187,2.0,2.1,2.2,26.5,95.1,1002.8,0.00,0,0.0,////,0.0,0,0.0,////,27.4,0.0,12.3,3.523
2015/06/01,17:10:01,194,196,198,2.8,3.0,3.2,26.8,91.7,1002.8,0.00,0,0.0,////,0.0,0,0.0,////,28.6,0.0,12.3,3.521
2015/06/01,17:20:01,215,223,234,2.1,2.6,3.2,27.1,87.7,1002.8,0.00,0,0.0,////,0.0,0,0.0,////,28.6,0.0,12.3,3.521
2015/06/01,17:30:01,221,228,238,2.7,3.0,3.2,27.5,86.9,1002.8,0.00,0,0.0,////,0.0,0,0.0,////,29.1,0.0,12.3,3.521
2015/06/01,17:40:01,198,200,201,1.7,1.8,1.9,27.6,86.0,1002.8,0.00,0,0.0,////,0.0,0,0.0,////,29.1,0.0,12.3,3.521
2015/06/01,17:50:01,197,207,212,1.7,1.9,2.1,27.7,85.9,1003.1,0.00,0,0.0,////,0.0,0,0.0,////,29.1,0.0,12.3,3.523
2015/06/01,18:00:01,210,213,219,1.1,1.3,1.6,27.8,84.7,1003.3,0.00,0,0.0,////,0.0,0,0.0,////,28.9,0.0,12.3,3.521
2015/06/01,18:10:01,193,209,217,1.4,1.6,1.7,27.5,84.8,1003.4,0.00,0,0.0,////,0.0,0,0.0,////,28.4,0.0,12.1,3.521
2015/06/01,18:20:01,233,243,261,1.2,1.3,1.5,27.4,84.4,1003.3,0.00,0,0.0,////,0.0,0,0.0,////,27.5,0.0,12.3,3.521
2015/06/01,18:30:01,224,225,226,2.0,2.2,2.4,27.0,87.1,1003.3,0.00,0,0.0,////,0.0,0,0.0,////,26.7,0.0,12.3,3.521
2015/06/01,18:40:01,250,251,251,1.3,1.5,1.7,26.6,88.7,1003.3,0.00,0,0.0,////,0.0,0,0.0,////,26.2,0.0,12.3,3.521
2015/06/01,18:50:01,205,212,220,0.9,1.1,1.3,26.5,90.0,1003.5,0.00,0,0.0,////,0.0,0,0.0,////,25.8,0.0,12.2,3.523
2015/06/01,19:00:01,198,203,205,2.4,2.7,3.1,26.4,89.9,1003.7,0.00,0,0.0,////,0.0,0,0.0,////,25.6,0.0,12.3,3.521
2015/06/01,19:10:01,214,215,216,2.2,2.3,2.4,26.2,90.9,1003.8,0.00,0,0.0,////,0.0,0,0.0,////,25.3,0.0,12.3,3.521
2015/06/01,19:20:01,174,221,256,0.2,0.6,1.3,26.1,91.5,1003.7,0.00,0,0.0,////,0.0,0,0.0,////,25.1,0.0,12.3,3.523
2015/06/01,19:30:01,193,199,202,1.4,1.7,2.0,26.0,92.3,1003.8,0.00,0,0.0,////,0.0,0,0.0,////,25.5,0.0,12.3,3.521
2015/06/01,19:40:01,187,193,199,1.9,2.1,2.2,25.8,92.9,1004.0,0.00,0,0.0,////,0.0,0,0.0,////,24.8,0.0,12.3,3.521
2015/06/01,19:50:01,216,218,220,2.6,2.8,3.1,25.8,93.7,1004.0,0.00,0,0.0,////,0.0,0,0.0,////,24.8,0.0,12.3,3.521
2015/06/01,20:00:01,218,221,226,1.5,1.9,2.2,25.8,93.4,1004.1,0.00,0,0.0,////,0.0,0,0.0,////,25.0,0.0,12.3,3.524
2015/06/01,20:10:01,217,218,219,1.2,1.4,1.5,25.9,93.2,1004.4,0.00,0,0.0,////,0.0,0,0.0,////,25.0,0.0,12.3,3.523
2015/06/01,20:20:01,196,203,213,2.1,2.2,2.4,25.9,92.4,1004.5,0.00,0,0.0,////,0.0,0,0.0,////,25.0,0.0,12.3,3.521
2015/06/01,20:30:01,231,233,234,1.2,1.4,1.5,26.2,89.8,1004.6,0.00,0,0.0,////,0.0,0,0.0,////,25.3,0.0,12.3,3.521
2015/06/01,20:40:01,191,199,212,1.7,2.0,2.2,26.2,88.8,1004.6,0.00,0,0.0,////,0.0,0,0.0,////,25.5,0.0,12.3,3.523
2015/06/01,20:50:01,191,199,205,2.6,2.9,3.4,26.1,88.7,1004.8,0.00,0,0.0,////,0.0,0,0.0,////,25.3,0.0,12.3,3.523
2015/06/01,21:00:01,213,216,217,2.5,2.6,2.7,26.2,88.5,1004.8,0.00,0,0.0,////,0.0,0,0.0,////,24.8,0.0,12.3,3.521
2015/06/01,21:10:01,191,201,211,2.2,2.4,2.6,26.2,88.5,1004.8,0.00,0,0.0,////,0.0,0,0.0,////,25.5,0.0,12.3,3.523
2015/06/01,21:20:01,199,203,206,4.0,4.2,4.4,26.3,89.3,1005.0,0.00,0,0.0,////,0.0,0,0.0,////,25.3,0.0,12.3,3.523
2015/06/01,21:30:01,197,204,209,1.3,1.8,2.5,26.3,88.7,1005.0,0.00,0,0.0,////,0.0,0,0.0,////,25.5,0.0,12.3,3.523
2015/06/01,21:40:01,218,222,227,1.3,1.5,1.7,26.3,88.7,1005.0,0.00,0,0.0,////,0.0,0,0.0,////,25.5,0.0,12.3,3.523
2015/06/01,21:50:01,187,193,198,1.7,2.1,2.4,26.1,89.6,1005.1,0.00,0,0.0,////,0.0,0,0.0,////,25.1,0.0,12.3,3.521
2015/06/01,22:00:01,188,194,199,2.9,3.1,3.2,26.2,89.2,1005.1,0.00,0,0.0,////,0.0,0,0.0,////,25.3,0.0,12.3,3.521
2015/06/01,22:10:01,213,219,225,2.0,2.2,2.4,26.3,88.6,1005.2,0.00,0,0.0,////,0.0,0,0.0,////,25.5,0.0,12.3,3.523
2015/06/01,22:20:01,211,213,216,1.6,1.7,2.0,26.3,88.7,1005.3,0.00,0,0.0,////,0.0,0,0.0,////,25.5,0.0,12.3,3.523
2015/06/01,22:30:01,219,230,236,1.6,1.9,2.2,26.2,88.9,1005.1,0.00,0,0.0,////,0.0,0,0.0,////,25.8,0.0,12.3,3.523
2015/06/01,22:40:01,210,214,217,1.8,1.9,2.2,26.1,88.2,1004.9,0.00,0,0.0,////,0.0,0,0.0,////,25.3,0.0,12.3,3.521
2015/06/01,22:50:01,223,228,230,2.0,2.4,2.8,26.0,89.7,1005.2,0.00,0,0.0,////,0.0,0,0.0,////,25.1,0.0,12.3,3.523
2015/06/01,23:00:01,220,225,231,1.4,1.5,1.8,25.8,90.5,1005.2,0.00,0,0.0,////,0.0,0,0.0,////,25.0,0.0,12.2,3.523
2015/06/01,23:10:01,229,234,238,1.9,2.1,2.3,25.9,89.7,1005.2,0.00,0,0.0,////,0.0,0,0.0,////,25.0,0.0,12.3,3.521
2015/06/01,23:20:01,227,228,229,1.2,1.6,2.0,25.7,89.1,1005.1,0.00,0,0.0,////,0.0,0,0.0,////,25.0,0.0,12.3,3.523
2015/06/01,23:30:01,210,214,217,2.7,3.0,3.3,25.6,90.1,1004.8,0.00,0,0.0,////,0.0,0,0.0,////,24.8,0.0,12.3,3.523
2015/06/01,23:40:01,205,214,222,1.9,2.2,2.6,25.5,91.5,1004.7,0.00,0,0.0,////,0.0,0,0.0,////,24.6,0.0,12.3,3.523
2015/06/01,23:50:01,224,236,246,2.8,3.3,3.7,25.3,92.3,1004.8,0.00,0,0.0,////,0.0,0,0.0,////,24.4,0.0,12.3,3.521
2015/06/02,00:00:01,193,208,218,2.6,2.9,3.2,25.2,92.9,1004.8,0.00,0,0.0,////,0.0,0,0.0,////,24.1,0.0,12.3,3.521
2015/06/02,00:10:01,208,213,220,3.3,3.9,4.4,25.1,92.8,1004.9,0.00,0,0.0,////,0.0,0,0.0,////,24.3,0.0,12.3,3.524
2015/06/02,00:20:01,209,219,232,2.6,3.3,4.2,25.1,92.0,1004.7,0.00,0,0.0,////,0.0,0,0.0,////,24.3,0.0,12.3,3.524
2015/06/02,00:30:01,213,218,229,2.0,2.2,2.4,25.1,90.4,1004.6,0.00,0,0.0,////,0.0,0,0.0,////,24.3,0.0,12.3,3.521
2015/06/02,00:40:01,196,201,207,4.2,4.7,5.1,25.3,88.5,1004.6,0.00,0,0.0,////,0.0,0,0.0,////,24.4,0.0,12.3,3.523
2015/06/02,00:50:01,215,218,222,2.6,2.7,3.0,25.3,88.2,1004.6,0.00,0,0.0,////,0.0,0,0.0,////,24.4,0.0,12.3,3.521
2015/06/02,01:00:01,203,208,212,4.5,4.7,4.9,25.3,88.8,1004.5,0.00,0,0.0,////,0.0,0,0.0,////,24.4,0.0,12.3,3.523
2015/06/02,01:10:01,197,204,213,2.1,2.7,3.3,25.3,88.8,1004.4,0.00,0,0.0,////,0.0,0,0.0,////,24.3,0.0,12.3,3.523
2015/06/02,01:20:01,203,208,217,2.0,2.3,2.7,25.3,89.1,1004.2,0.00,0,0.0,////,0.0,0,0.0,////,24.3,0.0,12.3,3.521
2015/06/02,01:30:01,207,212,215,3.8,4.1,4.4,25.1,89.8,1004.1,0.00,10,0.0,////,0.0,0,0.0,////,24.3,0.0,12.3,3.521
2015/06/02,01:40:01,200,211,218,2.3,2.6,2.8,25.1,90.3,1004.0,0.00,0,0.0,////,0.0,0,0.0,////,24.3,0.0,12.3,3.521
2015/06/02,01:50:01,200,203,205,2.7,2.9,3.1,25.1,90.3,1003.9,0.00,0,0.0,////,0.0,0,0.0,////,24.3,0.0,12.3,3.523
2015/06/02,02:00:01,205,212,219,1.9,2.3,2.7,25.2,89.1,1003.9,0.00,0,0.0,////,0.0,0,0.0,////,24.3,0.0,12.3,3.523
2015/06/02,02:10:01,207,224,237,1.4,1.9,2.4,25.3,87.0,1004.0,0.00,0,0.0,////,0.0,0,0.0,////,24.4,0.0,12.3,3.523
2015/06/02,02:20:01,205,207,208,2.6,2.8,3.0,25.4,86.4,1004.0,0.00,0,0.0,////,0.0,0,0.0,////,24.6,0.0,12.3,3.521
2015/06/02,02:30:01,205,218,230,2.0,2.3,2.6,25.5,85.6,1004.0,0.00,0,0.0,////,0.0,0,0.0,////,25.0,0.0,12.3,3.521
2015/06/02,02:40:01,190,197,203,2.2,2.5,2.7,25.5,85.5,1004.0,0.00,0,0.0,////,0.0,0,0.0,////,24.6,0.0,12.3,3.521
2015/06/02,02:50:01,207,223,232,1.4,1.6,2.1,25.4,85.7,1004.1,0.00,0,0.0,////,0.0,0,0.0,////,24.6,0.0,12.4,3.521
2015/06/02,03:00:01,203,213,231,2.2,2.4,2.7,25.4,86.1,1004.0,0.00,0,0.0,////,0.0,0,0.0,////,24.3,0.0,12.3,3.523
2015/06/02,03:10:01,216,221,225,3.6,3.7,3.9,25.2,86.9,1003.9,0.00,0,0.0,////,0.0,0,0.0,////,24.4,0.0,12.2,3.523
2015/06/02,03:20:01,213,222,229,1.8,2.2,2.7,25.1,87.1,1004.0,0.00,0,0.0,////,0.0,0,0.0,////,24.3,0.0,12.3,3.523
2015/06/02,03:30:01,209,213,218,1.4,1.6,1.9,25.0,88.0,1004.0,0.00,0,0.0,////,0.0,0,0.0,////,24.1,0.0,12.3,3.521
2015/06/02,03:40:01,209,214,216,3.0,3.3,3.5,25.0,88.4,1004.0,0.00,0,0.0,////,0.0,0,0.0,////,23.9,0.0,12.3,3.521
2015/06/02,03:50:01,239,246,254,1.4,2.0,2.5,25.0,88.7,1004.0,0.00,0,0.0,////,0.0,0,0.0,////,23.9,0.0,12.3,3.521
2015/06/02,04:00:01,229,231,233,3.3,3.5,3.7,24.9,88.7,1004.0,0.00,0,0.0,////,0.0,0,0.0,////,23.9,0.0,12.3,3.521
2015/06/02,04:10:01,219,223,228,1.7,1.8,1.9,24.9,89.0,1004.1,0.00,0,0.0,////,0.0,0,0.0,////,23.9,0.0,12.3,3.523
2015/06/02,04:20:01,212,217,223,2.5,2.7,2.9,24.9,89.2,1004.0,0.00,0,0.0,////,0.0,0,0.0,////,23.6,0.0,12.3,3.521
2015/06/02,04:30:01,214,217,220,2.7,3.3,3.6,25.2,89.3,1004.1,0.00,0,0.0,////,0.0,0,0.0,////,24.1,0.0,12.1,3.521
2015/06/02,04:40:01,211,231,249,1.4,1.6,1.8,25.3,89.9,1004.1,0.00,0,0.0,////,0.0,0,0.0,////,24.3,0.0,12.3,3.521
2015/06/02,04:50:01,189,198,205,0.9,1.4,2.1,25.2,90.2,1004.1,0.00,0,0.0,////,0.0,0,0.0,////,24.3,0.0,12.2,3.523
2015/06/02,05:00:01,241,244,247,1.5,1.8,1.9,25.3,90.3,1004.3,0.00,0,0.0,////,0.0,0,0.0,////,24.4,0.0,12.3,3.523
2015/06/02,05:10:01,203,205,208,2.2,2.5,2.7,25.3,90.3,1004.4,0.00,0,0.0,////,0.0,0,0.0,////,24.3,0.0,12.3,3.523
2015/06/02,05:20:01,199,209,227,2.4,2.7,2.9,25.3,90.4,1004.3,0.00,0,0.0,////,0.0,0,0.0,////,24.3,0.0,12.3,3.523
2015/06/02,05:30:01,211,212,213,2.9,3.1,3.4,25.4,90.5,1004.4,0.00,0,0.0,////,0.0,0,0.0,////,24.4,0.0,12.3,3.521
2015/06/02,05:40:01,212,217,223,3.2,3.4,3.7,25.4,91.0,1004.4,0.00,0,0.0,////,0.0,0,0.0,////,24.4,0.0,12.3,3.523
2015/06/02,05:50:01,203,207,213,3.2,3.5,3.7,25.5,90.9,1004.4,0.00,0,0.0,////,0.0,0,0.0,////,24.8,0.0,12.3,3.523
2015/06/02,06:00:01,220,222,228,3.4,3.5,3.6,25.7,90.2,1004.4,0.00,0,0.0,////,0.0,0,0.0,////,24.8,0.0,12.3,3.521
2015/06/02,06:10:01,201,209,220,1.5,2.0,2.5,25.8,90.7,1004.3,0.00,0,0.0,////,0.0,0,0.0,////,25.0,0.0,12.3,3.523
2015/06/02,06:20:01,204,214,219,2.9,3.4,4.0,25.9,91.1,1004.3,0.00,0,0.0,////,0.0,0,0.0,////,25.1,0.0,12.3,3.523
2015/06/02,06:30:01,207,213,218,4.2,4.7,5.1,26.0,91.0,1004.3,0.00,0,0.0,////,0.0,0,0.0,////,25.1,0.0,12.3,3.521
2015/06/02,06:40:01,198,202,209,4.4,4.8,5.2,26.2,90.9,1004.2,0.00,0,0.0,////,0.0,0,0.0,////,26.2,0.0,12.3,3.523
2015/06/02,06:50:01,221,225,228,4.1,4.5,5.0,26.5,89.8,1004.3,0.00,0,0.0,////,0.0,0,0.0,////,26.8,0.0,12.3,3.521
2015/06/02,07:00:01,221,229,239,4.1,4.5,4.9,26.8,88.5,1004.3,0.00,0,0.0,////,0.0,0,0.0,////,27.5,0.0,12.3,3.521
2015/06/02,07:10:01,206,216,235,1.6,2.2,2.9,26.8,88.0,1004.5,0.00,0,0.0,////,0.0,0,0.0,////,27.7,0.0,12.3,3.524
2015/06/02,07:20:01,196,210,218,2.0,2.4,2.6,26.7,88.3,1004.7,0.00,0,0.0,////,0.0,0,0.0,////,26.8,0.0,12.3,3.523
2015/06/02,07:30:01,194,207,215,2.1,2.7,3.1,26.8,88.2,1004.7,0.00,0,0.0,////,0.0,0,0.0,////,26.8,0.0,12.3,3.521
2015/06/02,07:40:01,215,224,232,1.7,1.9,2.0,26.8,87.9,1004.9,0.00,0,0.0,////,0.0,0,0.0,////,27.0,0.0,12.3,3.521
2015/06/02,07:50:01,178,182,188,1.8,2.1,2.3,27.0,86.9,1004.8,0.00,0,0.0,////,0.0,0,0.0,////,27.5,0.0,12.2,3.523
2015/06/02,08:00:01,212,216,224,2.4,2.9,3.3,27.2,86.1,1005.0,0.00,0,0.0,////,0.0,0,0.0,////,27.9,0.0,12.3,3.521
2015/06/02,08:10:01,229,229,230,2.7,3.0,3.2,27.2,85.4,1005.1,0.00,0,0.0,////,0.0,0,0.0,////,27.9,0.0,12.3,3.520
2015/06/02,08:20:01,215,223,231,2.8,3.0,3.2,27.0,85.8,1005.0,0.00,0,0.0,////,0.0,0,0.0,////,27.2,0.0,12.3,3.523
2015/06/02,08:30:01,213,225,234,2.6,2.8,3.3,26.9,85.6,1005.0,0.00,0,0.0,////,0.0,0,0.0,////,27.2,0.0,12.3,3.523
2015/06/02,08:40:01,236,238,243,2.7,2.9,3.1,27.4,85.5,1005.2,0.00,0,0.0,////,0.0,0,0.0,////,28.4,0.0,12.3,3.523
2015/06/02,08:50:01,185,199,216,2.3,2.6,2.8,27.8,83.2,1005.4,0.00,0,0.0,////,0.0,0,0.0,////,30.1,0.0,12.3,3.521
2015/06/02,09:00:01,232,235,239,4.3,4.5,4.8,28.2,82.2,1005.5,0.00,0,0.0,////,0.0,0,0.0,////,31.0,0.0,12.3,3.521
2015/06/02,09:10:01,236,242,247,3.1,3.5,3.8,28.2,81.7,1005.6,0.00,0,0.0,////,0.0,0,0.0,////,31.5,0.0,12.3,3.520
2015/06/02,09:20:01,171,195,214,1.6,2.1,2.5,28.4,80.9,1005.7,0.00,0,0.0,////,0.0,0,0.0,////,31.8,0.0,12.3,3.521
2015/06/02,09:30:01,226,234,244,2.2,2.7,3.5,28.6,80.1,1005.7,0.00,0,0.0,////,0.0,0,0.0,////,32.0,0.0,12.3,3.521
2015/06/02,09:40:01,229,235,238,3.4,3.9,4.2,28.7,79.0,1005.7,0.00,0,0.0,////,0.0,0,0.0,////,31.8,0.0,12.3,3.520
2015/06/02,09:50:01,213,217,222,2.2,2.6,3.2,28.9,78.6,1005.8,0.00,0,0.0,////,0.0,0,0.0,////,32.2,0.0,12.3,3.520
2015/06/02,10:00:01,226,230,236,3.0,3.3,3.6,28.8,80.4,1005.8,0.00,0,0.0,////,0.0,0,0.0,////,32.4,0.0,12.3,3.521
2015/06/02,10:10:01,201,208,217,3.2,3.7,4.2,28.8,80.7,1005.8,0.00,0,0.0,////,0.0,0,0.0,////,32.4,0.0,12.3,3.523
2015/06/02,10:20:01,222,241,253,1.5,1.6,1.8,28.8,80.9,1005.9,0.00,0,0.0,////,0.0,0,0.0,////,32.7,0.0,12.3,3.520
2015/06/02,10:30:01,214,227,247,1.7,1.8,2.0,28.9,77.8,1005.9,0.00,0,0.0,////,0.0,0,0.0,////,32.9,0.0,12.3,3.521
2015/06/02,10:40:01,201,217,225,1.0,1.3,1.8,28.8,78.7,1005.8,0.00,0,0.0,////,0.0,0,0.0,////,32.7,0.0,12.3,3.521